Regional Weather Roundup
Issued by NWS Jackson, KY

Home | Current Version | Previous Version | Graphics & Text | Print | Product List | Glossary On
Versions: 1 2 3 4 5 6 7 8 9 10 11 12 13 14 15 16 17 18 19 20 21 22 23 24 25 26 27 28 29 30 31 32 33 34 35 36 37 38 39 40 41 42 43 44 45 46 47 48 49 50
000
ASUS43 KJKL 200119
RWRJKL

EAST KENTUCKY HOURLY WEATHER ROUNDUP
NATIONAL WEATHER SERVICE JACKSON KY
800 PM EST FRI DEC 19 2014

NOTE: "FAIR" INDICATES FEW OR NO CLOUDS BELOW 12,000 FEET WITH
NO SIGNIFICANT WEATHER AND/OR OBSTRUCTIONS TO VISIBILITY.

* THESE REPORTS ARE NOT UNDER NWS QUALITY CONTROL AND MAY NOT
  REPORT WEATHER SUCH AS PRECIPITATION AND FOG.

KYZ079-080-083-085-087-088-110-112-115-119-120-200200
...EASTERN KENTUCKY...

CITY           SKY/WX    TMP DP  RH WIND       PRES   REMARKS
JACKSON        PTCLDY    30  22  72 NE3       30.24R
LONDON         PTCLDY    33  23  66 N7        30.23S WCI  27
SOMERSET*      PTCLDY    32  23  69 NE6       30.24F WCI  26
MONTICELLO*    MOCLDY    31  26  81 CALM      30.26F
MIDDLESBORO*   MOCLDY    35  28  78 CALM      30.22S
HARLAN APT*    MOCLDY    36  27  69 CALM      30.21R
HAZARD APT*    CLEAR     32  25  74 CALM      30.25R
PIKEVILLE APT* CLEAR     28  23  80 N8        30.23S WCI  20
BIG SANDY*     PTCLDY    27  23  84 NE6       30.26R WCI  21
MOREHEAD APT*  MOCLDY    27  21  80 N3        30.30S
ASHLAND*       CLOUDY    30  19  64 CALM      30.29F
$$

KYZ035-036-041-042-044-050-067-078-099-200200
...CENTRAL KENTUCKY...

CITY           SKY/WX    TMP DP  RH WIND       PRES   REMARKS
MT STERLING*   PTCLDY    27  23  86 NE3       30.30S
FLEMING/MASON* PTCLDY    27  21  80 NE5       30.30S WCI  21
DANVILLE*      CLEAR     28  23  80 NE3       30.26F
RICHMOND*      CLEAR     28  23  80 NE5       30.26F WCI  23
LEXINGTON      PTCLDY    25  21  85 NE8       30.27F WCI  16
FRANKFORT      PTCLDY    28  21  75 N5        30.27F WCI  23
$$

KYZ091>093-OHZ055-061-077-WVZ005-015-034-035-042-200200
...SOUTHERN OHIO/WEST VIRGINIA...

CITY           SKY/WX    TMP DP  RH WIND       PRES   REMARKS
COVINGTON      CLOUDY    30  20  66 NW3       30.29R
COLUMBUS       CLOUDY    30  22  72 N6        30.29F WCI  24
DAYTON         CLOUDY    30  24  78 N3        30.28F
WILMINGTON     CLOUDY    29  21  72 NE5       30.28S WCI  24
HUNTINGTON     CLOUDY    30  22  72 NE3       30.28F
CHARLESTON     CLOUDY    30  21  69 N5        30.28S WCI  25
PINEVILLE*     PTCLDY    29  28  97 MISG      30.25F
BECKLEY        CLOUDY    26  20  77 N5        30.18F WCI  20
BLUEFIELD      MOCLDY    30  22  72 W7        30.16R WCI  23
$$

VAZ002-007-008-TNZ017-027-036-066-071-200200
...SOUTHWEST VIRGINIA/EAST TENNESSEE...

CITY           SKY/WX    TMP DP  RH WIND       PRES   REMARKS
WISE*          MOCLDY    32  27  80 N6        30.17S WCI  26
JONESVILLE*    MOCLDY    36  27  69 CALM      30.22S
ABINGDON*      MOCLDY    36  26  67 CALM      30.17S
BRISTOL        MOCLDY    36  26  67 CALM      30.19R
KNOXVILLE      CLOUDY    41  27  57 N5        30.20R
OAK RIDGE      CLOUDY    41  27  57 NE5       30.21S
CROSSVILLE     CLOUDY    36  27  69 NE7       30.17F WCI  30
NASHVILLE      CLOUDY    38  28  67 N7        30.25S WCI  33
$$

...KEY TO REMARKS...
VSB - VISIBILITY IN MILES
WCI - WIND CHILL INDEX
HX  - HEAT INDEX

$$


USA.gov is the U.S. government's official web portal to all federal, state and local government web resources and services.